{"data":{"norad_id":43057,"intl_designator":"2017-079C","name":"GSAT0217 (GALILEO 21)","alt_names":[],"object_type":"PAYLOAD","status":"ACTIVE","operator":null,"country":"ESA","launch_date":"2017-12-12","launch_site_code":"FRGUI","launch_vehicle":null,"mission":null,"orbit_class":"UNKNOWN","rcs_meters":null,"size_class":null,"mass_kg":null,"dimensions":null,"purposes":["earth_obs","nav"],"wikipedia_slug":null,"has_3d_model":false,"image_url":null,"decayed_at":null,"tle_current":{"epoch":"2026-05-23T21:23:11.066784Z","epoch_age_seconds":177824,"freshness":"STALE","line1":"1 43057U 17079C   26143.89110031 -.00000014  00000+0  00000+0 0  9996","line2":"2 43057  55.0789 222.1733 0003554 287.2747  72.7400  1.70474769 52573","mean_motion":1.70474769,"eccentricity":0.0003554,"inclination_deg":55.0789,"raan_deg":222.1733,"arg_perigee_deg":287.2747,"mean_anomaly_deg":72.74,"bstar":0,"rev_number":5257,"period_min":844.69978076345,"perigee_km":23211.574118709,"apogee_km":23232.613962933,"semimajor_km":29600.231040821,"source":"CELESTRAK","updated_at":"2026-05-25T13:38:24.059951Z"}}}